Location: Nelson
(41.2830°S, 173.2830°E)
Time: 08:45:17
(UTC+13:00)

ISS - Visible Passes

Search period start: 28 February 2021 00:00
Search period end: 10 March 2021 00:00
Orbit: 417 x 422 km, 51.6° (Epoch: 27 February)

Date Brightness Start Highest point End Pass type
(mag) Time Alt. Az. Time Alt. Az. Time Alt. Az.
28 Feb -2.4 21:38:13 10° SW 21:41:21 31° SSE 21:42:21 26° ESE visible
28 Feb -0.4 23:14:59 10° WSW 23:15:18 12° WSW 23:15:18 12° WSW visible
01 Mar -2.0 20:50:52 10° SW 20:53:44 24° SSE 20:56:36 10° ESE visible
01 Mar -2.2 22:27:24 10° WSW 22:29:37 36° WSW 22:29:37 36° WSW visible
02 Mar -3.7 21:39:55 10° SW 21:43:22 72° SE 21:44:00 54° E visible
03 Mar -3.1 20:52:31 10° SW 20:55:51 45° SSE 20:58:26 15° E visible
03 Mar -1.3 22:29:42 10° W 22:31:24 20° WNW 22:31:24 20° WNW visible
04 Mar -2.7 21:41:54 10° WSW 21:45:08 39° NW 21:45:54 33° N visible
05 Mar -3.5 20:54:17 10° WSW 20:57:44 68° NW 21:00:30 15° NE visible
06 Mar -1.1 21:44:50 10° W 21:46:39 14° NW 21:48:10 11° NNW visible
07 Mar -1.6 20:56:33 10° W 20:59:20 23° NW 21:02:06 10° N visible
